Location: Pine Mountain Observatory
(43.7910°N, 120.9377°W)
Time: 20:39:58
(UTC-07:00)

Daily predictions for brighter satellites

Satellite Brightness Start Highest point End
(mag) Time Altitude Azimuth Time Altitude Azimuth Time Altitude Azimuth
CZ-3B DEB 4.4 21:04:30 10° WSW 21:13:55 68° NNW 21:26:51 10° NE
Cosmos 2208 Rocket 4.4 21:24:06 10° NNW 21:29:18 53° ENE 21:34:32 10° SE
Envisat 3.9 21:26:15 10° S 21:31:10 49° W 21:36:07 10° NNW
RESURS DK-1 4.1 21:28:05 10° N 21:31:18 21° NE 21:34:29 10° ESE
SAR-Lupe-1 4.1 21:28:33 10° SSE 21:32:08 89° WSW 21:35:45 10° NNW
Cosmos 1242 Rocket 3.3 21:29:30 10° N 21:33:00 38° ENE 21:36:29 10° SE
NOAA 11 4.3 21:29:02 10° SSE 21:34:22 62° ENE 21:39:44 10° N
BREEZE-M DEB (TANK) 2.2 21:32:50 10° W 21:34:43 51° NNW 21:38:06 10° ENE
Cosmos 1766 Rocket 4.4 21:36:23 10° SSE 21:40:10 31° E 21:44:00 10° NNE
SPOT 1/Viking Rocket 4.4 21:37:25 10° SE 21:42:01 34° ENE 21:46:38 10° N
Cosmos 1140 Rocket 3.8 21:37:29 10° SSW 21:42:38 71° WNW 21:47:48 10° NNE
Cosmos 1570 Rocket 4.1 21:38:28 10° NNW 21:43:48 76° ENE 21:49:04 10° SSE
USA 245 3.9 21:40:57 11° SE 21:43:54 37° ENE 21:47:42 10° N
USA 32 4.2 21:38:40 10° S 21:43:55 81° W 21:49:12 10° N
Resurs 01 Rocket 4.3 21:42:29 10° SW 21:45:10 16° W 21:47:53 10° NW
Cosmos 1939 Rocket 4.3 21:41:58 10° SSW 21:45:40 36° W 21:49:27 10° NNW
Meteor 1-21 Rocket 4.4 21:42:42 10° S 21:48:14 56° E 21:53:42 10° NNE
Cosmos 2297 Rocket 3.2 21:47:43 10° SW 21:53:13 52° WNW 21:58:46 10° NNE
Cosmos 1340 Rocket 3.7 21:52:29 10° SSW 21:56:24 53° WNW 22:00:24 10° N
H-2A R/B 4.0 21:54:49 10° E 21:57:29 16° ENE 22:00:07 10° NNE
Cosmos 1300 4.0 21:54:18 10° NNE 21:57:35 26° ENE 22:00:02 14° SE
EO 1 Delta rocket 4.5 21:54:27 13° SE 21:58:25 40° ENE 22:02:44 10° N
Cosmos 1867 3.6 21:53:13 10° SSW 21:58:35 62° ESE 22:03:58 10° NE
MetOp-B 4.2 21:58:47 10° SSE 22:04:09 85° WSW 22:09:33 10° NNW
YAOGAN 6 4.3 22:01:41 10° SSW 22:04:54 30° W 22:08:11 10° NNW
Cosmos 2263 Rocket 3.7 22:03:21 13° SE 22:05:31 16° E 22:08:53 10° ENE
Cosmos 1726 2.7 22:02:10 10° N 22:05:40 40° ENE 22:08:04 18° SE
Cosmos 1459 Rocket 4.0 22:01:23 10° N 22:07:45 88° WSW 22:13:57 10° S
Cosmos 2100 Rocket 4.1 22:01:45 10° N 22:08:05 83° W 22:14:26 10° S
Helios 1B rocket 4.5 22:05:07 10° N 22:08:45 30° WNW 22:12:24 10° SW
Cosmos 2061 Rocket 4.1 22:02:55 10° N 22:09:19 86° E 22:15:41 10° S
Cosmos 2084 3.1 22:05:21 10° SW 22:09:21 84° SE 22:13:12 10° NE
SPOT 5 2.9 22:07:35 13° SSE 22:11:52 84° ENE 22:16:59 10° NNW
Lacrosse 5 2.2 22:08:10 10° NW 22:13:12 60° NE 22:17:19 15° ESE
ATLAS 5 CENTAUR R/B 2.0 22:08:36 10° SW 22:13:16 74° NW 22:18:25 10° NE
Cosmos 1850 Rocket 4.5 22:09:47 10° SSW 22:14:55 64° WNW 22:20:06 10° NNE
Abrixas rocket 3.1 22:14:01 10° WNW 22:17:09 45° NNE 22:20:10 11° E
Cosmos 468 Rocket 4.0 22:13:01 10° NNW 22:18:09 68° ENE 22:21:53 19° SSE
Cosmos 371 Rocket 3.8 22:15:13 10° N 22:19:52 46° ENE 22:23:02 19° SE
Cosmos 2237 Rocket 4.5 22:16:23 10° WNW 22:20:05 18° W 22:23:45 10° SW
Cosmos 2123 Rocket 4.1 22:15:13 12° SSE 22:20:50 57° E 22:26:54 10° NNE
Cosmos 2173 Rocket 4.2 22:14:56 10° NNW 22:21:03 72° W 22:27:14 10° S
H-2A R/B 2.1 22:22:02 17° SSE 22:26:15 81° ENE 22:31:42 10° NNW
Cosmos 1908 4.4 22:23:06 10° NNW 22:26:46 39° W 22:30:22 10° SSW
Cosmos 1603 3.7 22:21:32 10° NNW 22:27:13 79° ENE 22:31:12 20° SSE
ERS-1 Rocket 4.1 22:22:36 10° SSW 22:27:17 39° W 22:32:00 10° NNW
Cosmos 1674 3.7 22:23:58 10° SSW 22:27:36 44° WNW 22:31:13 10° N
Nimbus 7 Rocket 4.4 22:21:47 10° NNE 22:27:50 71° ESE 22:33:46 10° S
Cosmos 1455 4.2 22:29:00 10° NNE 22:31:24 16° ENE 22:32:48 13° E
USA 234 3.2 22:25:05 10° NE 22:31:40 80° SE 22:38:12 10° SW
Cosmos 220 Rocket 4.2 22:34:08 19° S 22:37:01 50° ESE 22:41:17 10° NNE
Tiangong 1 0.6 22:35:18 10° W 22:38:05 72° S 22:39:04 35° ESE
Cosmos 1802 Rocket 4.4 22:34:05 10° NNW 22:40:06 59° W 22:45:50 11° S
Landsat 7 3.8 22:38:43 23° SSE 22:41:43 81° ENE 22:46:30 10° N
Cosmos 1408 Rocket 4.1 22:38:00 10° SSW 22:42:14 57° W 22:46:31 10° N
Cosmos 1725 Rocket 4.0 22:36:25 10° N 22:42:43 86° E 22:47:15 20° S
deb Chang Zheng 4 4.5 22:39:05 10° NE 22:43:00 31° E 22:44:23 26° SE
SL-16 R/B 3.8 22:39:11 10° NW 22:43:55 28° WSW 22:48:37 10° SSW
Cosmos 1943 3.5 22:38:47 10° NNW 22:44:22 56° ENE 22:47:48 23° SE
ARGOS 4.1 22:43:20 12° S 22:48:08 44° W 22:53:19 10° NNW
CZ-4B R/B 4.4 22:46:32 10° NNE 22:51:15 32° E 22:53:06 25° SE
Cosmos 1356 3.9 22:51:47 37° SE 22:52:34 43° E 22:55:54 10° NNE
Cosmos 1703 4.1 22:51:37 30° SE 22:52:39 35° E 22:56:18 10° NNE
Cosmos 2058 3.4 22:51:15 31° SE 22:52:48 45° E 22:56:50 10° NNE
Terra 1.8 22:54:08 28° SSE 22:56:40 80° ENE 23:01:27 10° N
DMSP B5D2-2 4.0 22:52:42 10° NNE 22:57:58 88° ESE 23:01:56 18° SSW
ERBS 2.4 22:56:51 10° NW 23:00:14 70° NE 23:01:14 41° ESE
Cosmos 1500 Rocket 3.5 22:59:26 27° S 23:01:51 82° E 23:06:20 10° N
Cosmos 1354 Rocket 4.5 23:06:54 31° SSE 23:08:44 42° ESE 23:13:39 10° NE
Meteor 1-11 4.2 23:05:08 22° S 23:08:59 81° E 23:14:50 10° NNE
Cosmos 2151 2.9 23:07:09 32° S 23:09:04 81° E 23:13:25 10° N
Cosmos 332 Rocket 4.4 23:04:40 10° NNW 23:09:24 49° WSW 23:11:57 25° SSW
RESURS DK-1 3.2 23:05:35 10° NW 23:09:32 41° WSW 23:11:11 28° SSW
CARTOSAT-1 3.7 23:09:48 32° S 23:11:43 70° WSW 23:16:02 10° NNW
Cosmos 1814 Rocket 4.5 23:10:43 10° NNW 23:15:55 54° WSW 23:18:38 27° S
CZ-2C R/B 4.1 23:14:00 10° NE 23:17:43 19° E 23:18:37 18° ESE
Spot 4 3.9 23:18:33 36° SSE 23:20:31 71° ENE 23:25:23 10° N
Cosmos 1805 Rocket 4.2 23:19:58 35° ESE 23:20:46 39° E 23:24:48 10° NNE
Cosmos 1486 Rocket 4.1 23:17:35 18° SSW 23:21:34 79° WNW 23:26:54 10° NNE
Meteor 1-27 4.3 23:16:18 10° NNW 23:22:09 76° W 23:25:08 30° S
Cosmos 304 Rocket 3.9 23:20:59 10° NNW 23:25:46 63° ENE 23:27:27 38° SE
Cosmos 2228 Rocket 4.4 23:22:46 10° NNW 23:26:56 35° W 23:29:28 20° SW
Cosmos 1633 Rocket 4.3 23:26:58 25° E 23:27:23 25° E 23:30:58 10° NNE
Cosmos 841 Rocket 3.6 23:24:03 10° NNW 23:29:16 66° WSW 23:31:24 35° S
Cosmos 1763 Rocket 4.0 23:27:39 10° NNW 23:32:33 47° WSW 23:34:39 30° SSW
H-2A R/B 2.5 23:31:35 35° SSW 23:33:06 53° W 23:37:17 10° NNW
SME Rocket 3.1 23:32:35 48° SE 23:33:32 67° ENE 23:38:00 10° N
Cosmos 1626 2.4 23:34:58 44° SW 23:35:57 64° W 23:39:41 10° N
Cosmos 1151 Rocket 3.9 23:32:41 10° NNW 23:36:51 43° W 23:38:34 29° SW
Cosmos 2233 Rocket 4.3 23:31:00 10° NNW 23:37:05 59° W 23:40:31 26° SSW
COSMOS 2406 4.3 23:41:27 10° N 23:46:38 35° NE 23:49:39 21° ESE
Cosmos 2263 Rocket 2.3 23:44:58 21° SW 23:48:46 72° WNW 23:54:22 10° NNE
Abrixas rocket 3.5 23:50:48 10° WNW 23:52:48 31° W 23:52:48 31° W
